South Hill, VA

8:34 PM EST on December 06, 2019 (GMT -0500)
Mecklenburg-Brunswick Regional

Weather History for KAVC - September, 2019

Change the Weather History Date:

Tuesday, September 24, 2019

  Actual Average (WUND) Record (WUND)
Temperature  
Mean Temperature 74 °F -  
Max Temperature 86 °F - - (-1)
Min Temperature 64 °F - - (-1)
Cooling Degree Days 10    
Growing Degree Days 24 (Base 50)    
Moisture  
Dew Point 59 °F    
Average Humidity 60    
Maximum Humidity 88    
Minimum Humidity 33    
Precipitation  
Precipitation 0.00 in - - ()
Sea Level Pressure  
Sea Level Pressure 29.94 in    
Wind  
Wind Speed 3 mph (NNW)    
Max Wind Speed 9 mph    
Max Gust Speed -    
Averages and records for this station are not official NWS values.
T = Trace of Precipitation, MM = Missing Value Source: NWS Daily Summary

Daily Weather History Graph

Daily Weather History Graph

Search for Another Location

Airport or City:

Astronomy

Sep. 24, 2019 Rise Set
Actual Time 7:01 AM EDT 7:06 PM EDT
Civil Twilight 6:35 AM EDT 7:32 PM EDT
Nautical Twilight 6:05 AM EDT 8:02 PM EDT
Astronomical Twilight 5:35 AM EDT 8:32 PM EDT
Moon 1:54 AM EDT (9/24) 4:41 PM EDT (9/24)
Length of Visible Light 12h 56m
Length of Day
12h 04m
Waning Crescent, 23% of the Moon is Illuminated
Sep 24
Waning Crescent
Sep 28
New
Oct 5
First Quarter
Oct 13
Full
Oct 21
Last Quarter

Hourly Weather History & Observations

Time (EDT) Temp. Heat Index Dew Point Humidity Pressure Visibility Wind Dir Wind Speed Gust Speed Precip Events Conditions
12:15 AM 71.1 °F - 65.3 °F 82% 29.94 in - SSW 4.6 mph - N/A   Clear
12:55 AM 70.9 °F - 65.3 °F 82% 29.93 in - SSW 8.1 mph - N/A   Mostly Cloudy
1:15 AM 72.0 °F - 65.3 °F 79% 29.93 in - SSW 5.8 mph - N/A   Mostly Cloudy
1:35 AM 72.1 °F - 65.1 °F 78% 29.93 in - SW 4.6 mph - N/A   Overcast
1:55 AM 72.7 °F - 64.8 °F 76% 29.94 in - Calm Calm - N/A   Overcast
2:15 AM 72.7 °F - 64.9 °F 77% 29.94 in - Calm Calm - N/A   Overcast
2:35 AM 72.3 °F - 65.7 °F 79% 29.93 in - Calm Calm - N/A   Overcast
2:55 AM 70.9 °F - 65.8 °F 84% 29.92 in - South 3.5 mph - N/A   Overcast
3:15 AM 70.9 °F - 65.3 °F 82% 29.92 in - Calm Calm - N/A   Overcast
3:35 AM 71.8 °F - 65.3 °F 80% 29.92 in - Calm Calm - N/A   Overcast
3:55 AM 71.8 °F - 64.6 °F 78% 29.92 in - Calm Calm - N/A   Overcast
4:15 AM 73.0 °F - 63.5 °F 72% 29.92 in - Calm Calm - N/A   Overcast
4:35 AM 73.2 °F - 63.1 °F 71% 29.92 in - West 3.5 mph - N/A   Overcast
4:55 AM 72.1 °F - 63.5 °F 74% 29.92 in - Calm Calm - N/A   Overcast
5:15 AM 72.0 °F - 63.3 °F 74% 29.92 in - Calm Calm - N/A   Overcast
5:35 AM 71.8 °F - 63.1 °F 74% 29.93 in - Calm Calm - N/A   Overcast
5:55 AM 70.5 °F - 63.1 °F 77% 29.93 in - Calm Calm - N/A   Mostly Cloudy
6:15 AM 68.4 °F - 63.5 °F 84% 29.94 in - Calm Calm - N/A   Mostly Cloudy
6:35 AM 68.0 °F - 63.5 °F 85% 29.94 in - NNW 3.5 mph - N/A   Mostly Cloudy
6:55 AM 67.5 °F - 63.9 °F 88% 29.94 in - NNW 3.5 mph - N/A   Unknown
7:15 AM 67.8 °F - 64.0 °F 88% 29.95 in - NNW 3.5 mph - N/A   Unknown
7:35 AM 68.0 °F - 64.4 °F 88% 29.95 in - NNW 4.6 mph - N/A   Unknown
7:55 AM 69.1 °F - 64.6 °F 86% 29.96 in - NNW 4.6 mph - N/A   Unknown
8:15 AM 70.9 °F - 64.8 °F 81% 29.96 in - NNW 6.9 mph - N/A   Clear
8:35 AM 72.7 °F - 65.1 °F 77% 29.97 in - NNW 5.8 mph - N/A   Clear
8:55 AM 73.6 °F - 64.8 °F 74% 29.97 in - North 8.1 mph - N/A   Scattered Clouds
9:15 AM 74.5 °F - 65.1 °F 72% 29.98 in - North 9.2 mph - N/A   Clear
9:35 AM 75.9 °F - 64.4 °F 67% 29.98 in - North 8.1 mph - N/A   Clear
9:55 AM 77.2 °F - 64.6 °F 65% 29.98 in - NNW 4.6 mph - N/A   Clear
10:15 AM 78.3 °F - 64.0 °F 61% 29.98 in - NNW 6.9 mph - N/A   Clear
10:55 AM 80.1 °F 81.1 °F 61.2 °F 52% 29.99 in - NNE 6.9 mph - N/A   Scattered Clouds
11:15 AM 81.3 °F 82.2 °F 61.3 °F 51% 29.98 in - North 5.8 mph - N/A   Scattered Clouds
11:35 AM 78.4 °F - 59.5 °F 52% 29.98 in - North 3.5 mph - N/A   Scattered Clouds
11:55 AM 82.4 °F 82.7 °F 60.3 °F 47% 29.98 in - NNW 3.5 mph - N/A   Clear
12:15 PM 82.4 °F 82.3 °F 58.3 °F 44% 29.97 in - NNW 4.6 mph - N/A   Clear
12:35 PM 84.0 °F 83.3 °F 57.6 °F 40% 29.96 in - NW 3.5 mph - N/A   Scattered Clouds
12:55 PM 84.0 °F 83.5 °F 58.1 °F 41% 29.96 in - NNW 8.1 mph - N/A   Scattered Clouds
1:15 PM 82.6 °F 82.0 °F 55.8 °F 40% 29.95 in - Calm Calm - N/A   Scattered Clouds
1:35 PM 82.4 °F 81.7 °F 55.2 °F 39% 29.94 in - NW 3.5 mph - N/A   Clear
1:55 PM 83.8 °F 82.7 °F 55.2 °F 37% 29.93 in - WNW 3.5 mph - N/A   Clear
2:15 PM 84.6 °F 83.4 °F 55.8 °F 37% 29.93 in - NNW 3.5 mph - N/A   Scattered Clouds
2:35 PM 84.4 °F 83.1 °F 54.5 °F 36% 29.92 in - North 8.1 mph - N/A   Clear
2:55 PM 85.5 °F 83.8 °F 54.3 °F 34% 29.91 in - NNW 6.9 mph - N/A   Clear
3:15 PM 85.8 °F 84.0 °F 53.4 °F 33% 29.91 in - SSE 3.5 mph - N/A   Clear
3:35 PM 85.6 °F 83.8 °F 53.6 °F 33% 29.90 in - NNW 3.5 mph - N/A   Scattered Clouds
3:55 PM 85.3 °F 83.6 °F 53.6 °F 34% 29.89 in - Calm Calm - N/A   Scattered Clouds
4:15 PM 85.6 °F 83.8 °F 53.8 °F 33% 29.89 in - North 4.6 mph - N/A   Clear
4:35 PM 84.9 °F 83.2 °F 53.1 °F 33% 29.89 in - Calm Calm - N/A   Clear
4:55 PM 85.3 °F 83.6 °F 53.6 °F 34% 29.89 in - North 4.6 mph - N/A   Clear
5:15 PM 85.3 °F - 52.9 °F 33% 29.89 in - North 5.8 mph - N/A   Clear
5:35 PM 84.7 °F - 52.3 °F 33% 29.89 in - Calm Calm - N/A   Clear
5:55 PM 83.8 °F - 52.7 °F 34% 29.89 in - Calm Calm - N/A   Clear
6:15 PM 83.1 °F 81.9 °F 53.6 °F 36% 29.90 in - North 5.8 mph - N/A   Clear
6:35 PM 82.2 °F 81.4 °F 54.1 °F 38% 29.90 in - North 4.6 mph - N/A   Clear
6:55 PM 80.1 °F 80.1 °F 54.3 °F 41% 29.91 in - North 4.6 mph - N/A   Clear
7:15 PM 77.5 °F - 54.1 °F 44% 29.92 in - North 3.5 mph - N/A   Clear
7:35 PM 73.9 °F - 55.0 °F 52% 29.92 in - Calm Calm - N/A   Clear
7:55 PM 71.2 °F - 55.8 °F 58% 29.93 in - Calm Calm - N/A   Clear
8:15 PM 69.8 °F - 56.3 °F 62% 29.94 in - North 3.5 mph - N/A   Clear
8:35 PM 70.0 °F - 57.0 °F 63% 29.96 in - North 5.8 mph - N/A   Clear
8:55 PM 70.0 °F - 55.2 °F 59% 29.96 in - NNE 4.6 mph - N/A   Clear
9:15 PM 70.9 °F - 54.5 °F 56% 29.97 in - NNE 5.8 mph - N/A   Clear
9:35 PM 69.6 °F - 54.5 °F 59% 29.97 in - North 3.5 mph - N/A   Clear
9:55 PM 67.6 °F - 54.7 °F 63% 29.97 in - Calm Calm - N/A   Clear
10:15 PM 65.8 °F - 54.5 °F 67% 29.98 in - North 3.5 mph - N/A   Clear
10:35 PM 66.2 °F - 53.8 °F 64% 29.99 in - North 3.5 mph - N/A   Clear
10:55 PM 64.8 °F - 54.1 °F 68% 29.99 in - Calm Calm - N/A   Clear
11:15 PM 65.3 °F - 54.0 °F 67% 29.99 in - Calm Calm - N/A   Clear
11:35 PM 64.2 °F - 54.5 °F 71% 29.99 in - Calm Calm - N/A   Clear
11:55 PM 64.2 °F - 54.5 °F 71% 29.99 in - Calm Calm - N/A   Clear